Regional Weather Roundup
Issued by NWS

Home | Current Version | Previous Version | Text Only | Print | Product List | Glossary On
Versions: 1 2 3 4 5 6 7 8 9 10 11 12 13 14 15 16 17 18 19 20 21 22 23 24 25 26 27 28 29 30 31 32 33 34 35 36 37 38 39 40 41 42 43 44 45 46 47 48 49 50
000
ASUS43 KIND 210109
RWRIN

WEATHER ROUNDUP FOR INDIANA
NATIONAL WEATHER SERVICE INDIANAPOLIS IN
800 PM EST SAT DEC 20 2014

NOTE: "FAIR" INDICATES FEW OR NO CLOUDS BELOW 12,000 FEET WITH NO
SIGNIFICANT WEATHER AND/OR OBSTRUCTIONS TO VISIBILITY.

* - STATION DOES NOT REPORT WEATHER SUCH AS PRECIPITATION OR FOG.

+ - STATION NOT QUALITY CONTROLLED BY THE NATIONAL WEATHER SERVICE.
    USE DATA WITH CAUTION...ESPECIALLY DEWPOINT AND RELATIVE
    HUMIDITY OBSERVATIONS.

INZ001>003-010>013-019-020-210200-
NORTHWEST INDIANA

CITY           SKY/WX    TMP DP  RH WIND       PRES   REMARKS
GARY /AIRPORT/ CLOUDY    34  23  64 CALM      30.28S
KNOX *+        CLOUDY    31  24  77 S3        30.28S
LA PORTE +     CLOUDY    33  28  85 CALM      30.28S
MICHIGAN CITY+ CLOUDY    32  23  69 CALM      30.28S
MONTICELLO +   CLOUDY    31  27  83 CALM      30.28S
RENSSELAER +   CLOUDY    32  32 100 SE5       30.28S WCI  27
VALPARAISO     CLOUDY    31  25  78 SE5       30.27S WCI  26

$$

LMZ046-743>745-210200-
SOUTHERN LAKE MICHIGAN

STATION/POSITION TIME  TEMP WIND        PRES
                       AIR  DIR/SP/G
                 (UTC) (F)  (DEG/KT/KT) (MB)

$$

INZ004-005-014>016-021>024-210200-
NORTH CENTRAL INDIANA

CITY           SKY/WX    TMP DP  RH WIND       PRES   REMARKS
GOSHEN         CLOUDY    31  28  89 CALM      30.28R FOG
LOGANSPORT +   CLOUDY    30  27  86 CALM      30.30S
PERU/GRISSOM   CLOUDY    30  30 100 CALM      30.28S
ROCHESTER +    CLOUDY    32  30  93 CALM      30.29F
SOUTH BEND     CLOUDY    32  26  78 SW3       30.29R
WARSAW +       CLOUDY    32  28  86 CALM      30.28S

$$

INZ006>009-017-018-025>027-210200-
NORTHEAST INDIANA

CITY           SKY/WX    TMP DP  RH WIND       PRES   REMARKS
ANGOLA *+      CLOUDY    30  27  86 CALM      30.27R
AUBURN +       CLOUDY    32  27  80 CALM      30.29R
FORT WAYNE     CLOUDY    31  27  85 W3        30.30R
HUNTINGTON +   CLOUDY    31  27  88 CALM      30.29S

$$

INZ028-029-035-036-043>045-051>053-210200-
WEST CENTRAL INDIANA

CITY           SKY/WX    TMP DP  RH WIND       PRES   REMARKS
GREENCASTLE +  CLEAR     28  21  74 CALM      30.29S
LAFAYETTE      CLOUDY    30  25  81 SE3       30.29S
TERRE HAUTE    PTCLDY    30  25  81 CALM      30.29S

$$

INZ030>032-037>040-046>048-054>057-064-065-210200-
CENTRAL INDIANA

CITY           SKY/WX    TMP DP  RH WIND       PRES   REMARKS
CP ATTERBURY + CLOUDY    32  27  80 MISG      30.30S
FRANKFORT +    CLOUDY    29  29 100 SE3       30.30S
GREENWOOD *+   PTCLDY    30  23  74 CALM      30.29
INDIANAPOLIS   CLOUDY    27  22  81 CALM      30.28S
-EAGLE CREEK   CLEAR     26  23  88 CALM      30.28S
KOKOMO *+      MOCLDY    30  25  80 CALM      30.29S
MARION +       CLOUDY    30  27  88 CALM      30.29F
MT COMFORT *+  MOCLDY    30  21  69 CALM      30.29S
SHELBYVILLE    CLOUDY    32  26  78 E3        30.29R
ZIONSVILLE +   MOCLDY    28  24  85 CALM      30.29S FOG

$$

INZ033-034-041-042-049-050-058-059-210200-
EAST CENTRAL INDIANA

CITY           SKY/WX    TMP DP  RH WIND       PRES   REMARKS
MUNCIE         CLOUDY    31  24  75 CALM      30.28S

$$

INZ060-061-067>069-081>083-085>088-210200-
SOUTHWEST INDIANA

CITY           SKY/WX    TMP DP  RH WIND       PRES   REMARKS
EVANSVILLE     CLEAR     31  25  78 NE3       30.31R
HUNTINGBURG *+ CLEAR     28  23  80 CALM      30.30S
WASHINGTON +   CLEAR     27  24  87 CALM      30.30R

$$

INZ062-063-066-070>080-084-089>092-210200-
SOUTH CENTRAL AND SOUTHEAST INDIANA

CITY           SKY/WX    TMP DP  RH WIND       PRES   REMARKS
BLOOMINGTON    MOCLDY    30  26  85 E3        30.28S
NORTH VERNON + CLOUDY    32  32 100 CALM      30.30

$$




USA.gov is the U.S. government's official web portal to all federal, state and local government web resources and services.